Time,TemperatureF,DewpointF,PressureIn,WindDirection,WindDirectionDegrees,WindSpeedMPH,WindSpeedGustMPH,Humidity,HourlyPrecipIn,Conditions,Clouds,dailyrainin,SoftwareType,DateUTC
2013-05-26 00:05:00,41.5,39.0,29.73,East,96,0.0,6.0,90,0.00,,,0.00,weatherlink.com 1.10,2013-05-26 04:05:00,
2013-05-26 00:20:00,41.5,39.0,29.73,West,277,4.0,7.0,90,0.00,,,0.00,weatherlink.com 1.10,2013-05-26 04:20:00,
2013-05-26 00:35:00,41.4,39.0,29.73,WNW,291,0.0,6.0,90,0.00,,,0.00,weatherlink.com 1.10,2013-05-26 04:35:00,
2013-05-26 00:50:00,41.3,39.0,29.73,West,260,2.0,4.0,90,0.00,,,0.00,weatherlink.com 1.10,2013-05-26 04:50:00,
2013-05-26 01:06:00,41.1,38.0,29.73,WSW,241,0.0,9.0,90,0.00,,,0.00,weatherlink.com 1.10,2013-05-26 05:06:00,
2013-05-26 01:20:00,41.0,38.0,29.73,West,272,0.0,5.0,89,0.00,,,0.00,weatherlink.com 1.10,2013-05-26 05:20:00,
2013-05-26 01:35:00,40.8,38.0,29.72,West,271,2.0,7.0,89,0.00,,,0.00,weatherlink.com 1.10,2013-05-26 05:35:00,
2013-05-26 01:50:00,40.6,38.0,29.72,South,184,2.0,4.0,89,0.00,,,0.00,weatherlink.com 1.10,2013-05-26 05:50:00,
2013-05-26 02:05:00,40.6,38.0,29.72,WNW,290,3.0,7.0,89,0.00,,,0.00,weatherlink.com 1.10,2013-05-26 06:05:00,
2013-05-26 02:20:00,40.5,38.0,29.72,SSW,192,1.0,9.0,89,0.00,,,0.00,weatherlink.com 1.10,2013-05-26 06:20:00,
2013-05-26 02:35:00,40.2,38.0,29.71,East,84,0.0,7.0,90,0.00,,,0.00,weatherlink.com 1.10,2013-05-26 06:35:00,
2013-05-26 02:50:00,39.9,38.0,29.71,SSE,163,1.0,6.0,91,0.01,,,0.01,weatherlink.com 1.10,2013-05-26 06:50:00,
2013-05-26 03:05:00,39.7,37.0,29.71,SW,217,3.0,7.0,91,0.01,,,0.01,weatherlink.com 1.10,2013-05-26 07:05:00,
2013-05-26 03:21:00,39.7,37.0,29.71,SW,219,5.0,6.0,91,0.01,,,0.01,weatherlink.com 1.10,2013-05-26 07:21:00,
2013-05-26 03:36:00,39.5,37.0,29.71,SW,227,0.0,4.0,92,0.01,,,0.01,weatherlink.com 1.10,2013-05-26 07:36:00,
2013-05-26 03:51:00,39.5,37.0,29.71,SW,226,0.0,6.0,92,0.00,,,0.01,weatherlink.com 1.10,2013-05-26 07:51:00,
2013-05-26 04:06:00,39.5,37.0,29.72,West,276,1.0,5.0,92,0.01,,,0.02,weatherlink.com 1.10,2013-05-26 08:06:00,
2013-05-26 04:21:00,39.4,38.0,29.72,WSW,241,2.0,7.0,93,0.02,,,0.03,weatherlink.com 1.10,2013-05-26 08:21:00,
2013-05-26 04:36:00,39.6,38.0,29.72,WSW,254,1.0,5.0,93,0.02,,,0.03,weatherlink.com 1.10,2013-05-26 08:36:00,
2013-05-26 04:51:00,39.7,38.0,29.72,West,263,2.0,6.0,93,0.02,,,0.03,weatherlink.com 1.10,2013-05-26 08:51:00,
2013-05-26 05:06:00,39.8,38.0,29.72,WNW,299,0.0,4.0,93,0.02,,,0.04,weatherlink.com 1.10,2013-05-26 09:06:00,
2013-05-26 05:21:00,39.9,38.0,29.72,SW,230,1.0,7.0,93,0.01,,,0.04,weatherlink.com 1.10,2013-05-26 09:21:00,
2013-05-26 05:36:00,40.1,38.0,29.73,WSW,248,1.0,5.0,93,0.01,,,0.04,weatherlink.com 1.10,2013-05-26 09:36:00,
2013-05-26 05:51:00,40.3,39.0,29.73,SSW,213,0.0,4.0,93,0.01,,,0.04,weatherlink.com 1.10,2013-05-26 09:51:00,
2013-05-26 06:06:00,40.7,39.0,29.74,WNW,294,1.0,8.0,93,0.00,,,0.04,weatherlink.com 1.10,2013-05-26 10:06:00,
2013-05-26 06:21:00,41.1,39.0,29.75,NW,321,3.0,6.0,92,0.00,,,0.04,weatherlink.com 1.10,2013-05-26 10:21:00,
2013-05-26 06:36:00,41.4,39.0,29.75,SSW,213,4.0,7.0,91,0.00,,,0.04,weatherlink.com 1.10,2013-05-26 10:36:00,
2013-05-26 06:51:00,41.9,39.0,29.75,SSW,199,0.0,8.0,90,0.00,,,0.04,weatherlink.com 1.10,2013-05-26 10:51:00,
2013-05-26 07:06:00,42.2,39.0,29.76,SW,225,0.0,6.0,89,0.00,,,0.04,weatherlink.com 1.10,2013-05-26 11:06:00,
2013-05-26 07:21:00,42.5,39.0,29.76,WNW,288,0.0,6.0,88,0.00,,,0.04,weatherlink.com 1.10,2013-05-26 11:21:00,
2013-05-26 07:36:00,43.1,40.0,29.77,WSW,239,1.0,6.0,88,0.00,,,0.04,weatherlink.com 1.10,2013-05-26 11:36:00,
2013-05-26 07:51:00,43.4,40.0,29.77,West,278,2.0,6.0,87,0.00,,,0.04,weatherlink.com 1.10,2013-05-26 11:51:00,
2013-05-26 08:06:00,43.9,40.0,29.78,WSW,244,1.0,6.0,87,0.00,,,0.04,weatherlink.com 1.10,2013-05-26 12:06:00,
2013-05-26 08:21:00,44.5,41.0,29.79,NW,325,0.0,7.0,86,0.00,,,0.04,weatherlink.com 1.10,2013-05-26 12:21:00,
2013-05-26 08:36:00,44.0,40.0,29.79,SSE,152,2.0,7.0,87,0.01,,,0.05,weatherlink.com 1.10,2013-05-26 12:36:00,
2013-05-26 08:51:00,44.1,41.0,29.79,West,280,0.0,5.0,88,0.01,,,0.05,weatherlink.com 1.10,2013-05-26 12:51:00,
2013-05-26 09:06:00,46.2,43.0,29.79,WSW,250,0.0,7.0,87,0.01,,,0.05,weatherlink.com 1.10,2013-05-26 13:06:00,
2013-05-26 09:21:00,48.0,42.0,29.80,WNW,295,4.0,5.0,80,0.01,,,0.05,weatherlink.com 1.10,2013-05-26 13:21:00,
2013-05-26 09:36:00,49.7,43.0,29.80,NW,326,0.0,8.0,77,0.00,,,0.05,weatherlink.com 1.10,2013-05-26 13:36:00,
2013-05-26 09:51:00,50.5,43.0,29.80,WSW,238,0.0,6.0,74,0.00,,,0.05,weatherlink.com 1.10,2013-05-26 13:51:00,
2013-05-26 10:06:00,50.9,43.0,29.80,NNW,348,2.0,6.0,73,0.00,,,0.05,weatherlink.com 1.10,2013-05-26 14:06:00,
2013-05-26 10:21:00,50.5,41.0,29.81,West,276,4.0,10.0,71,0.00,,,0.05,weatherlink.com 1.10,2013-05-26 14:21:00,
2013-05-26 10:36:00,51.4,42.0,29.81,SSW,210,3.0,9.0,70,0.00,,,0.05,weatherlink.com 1.10,2013-05-26 14:36:00,
2013-05-26 10:51:00,51.6,41.0,29.81,West,276,1.0,9.0,68,0.00,,,0.05,weatherlink.com 1.10,2013-05-26 14:51:00,
2013-05-26 11:07:00,52.6,42.0,29.82,WNW,298,3.0,11.0,67,0.00,,,0.05,weatherlink.com 1.10,2013-05-26 15:07:00,
2013-05-26 11:22:00,53.4,40.0,29.82,SW,226,3.0,13.0,62,0.00,,,0.05,weatherlink.com 1.10,2013-05-26 15:22:00,
2013-05-26 11:37:00,54.4,41.0,29.82,WSW,249,5.0,8.0,61,0.00,,,0.05,weatherlink.com 1.10,2013-05-26 15:37:00,
2013-05-26 11:52:00,54.9,41.0,29.83,NW,306,1.0,9.0,61,0.00,,,0.05,weatherlink.com 1.10,2013-05-26 15:52:00,
2013-05-26 12:07:00,54.5,41.0,29.83,WNW,303,1.0,11.0,61,0.00,,,0.05,weatherlink.com 1.10,2013-05-26 16:07:00,
2013-05-26 12:22:00,54.3,41.0,29.84,West,271,10.0,10.0,61,0.00,,,0.05,weatherlink.com 1.10,2013-05-26 16:22:00,
2013-05-26 12:37:00,55.0,41.0,29.84,WSW,253,3.0,11.0,59,0.00,,,0.05,weatherlink.com 1.10,2013-05-26 16:37:00,
2013-05-26 12:52:00,54.9,41.0,29.85,SSW,207,4.0,7.0,61,0.00,,,0.05,weatherlink.com 1.10,2013-05-26 16:52:00,
2013-05-26 13:07:00,55.5,41.0,29.85,West,263,0.0,11.0,59,0.00,,,0.05,weatherlink.com 1.10,2013-05-26 17:07:00,
2013-05-26 13:22:00,55.8,40.0,29.85,WNW,287,2.0,8.0,56,0.00,,,0.05,weatherlink.com 1.10,2013-05-26 17:22:00,
2013-05-26 13:37:00,55.2,40.0,29.86,WNW,285,1.0,8.0,57,0.00,,,0.05,weatherlink.com 1.10,2013-05-26 17:37:00,
2013-05-26 13:52:00,55.1,40.0,29.86,West,281,4.0,10.0,57,0.00,,,0.05,weatherlink.com 1.10,2013-05-26 17:52:00,
2013-05-26 14:07:00,56.2,40.0,29.86,SW,232,0.0,11.0,55,0.00,,,0.05,weatherlink.com 1.10,2013-05-26 18:07:00,
2013-05-26 14:22:00,57.3,40.0,29.86,NW,326,3.0,12.0,52,0.00,,,0.05,weatherlink.com 1.10,2013-05-26 18:22:00,
2013-05-26 14:37:00,58.1,40.0,29.86,SW,222,1.0,11.0,51,0.00,,,0.05,weatherlink.com 1.10,2013-05-26 18:37:00,
2013-05-26 14:52:00,58.0,39.0,29.87,ENE,69,1.0,10.0,50,0.00,,,0.05,weatherlink.com 1.10,2013-05-26 18:52:00,
2013-05-26 15:07:00,57.2,38.0,29.88,WNW,298,5.0,9.0,49,0.00,,,0.05,weatherlink.com 1.10,2013-05-26 19:07:00,
2013-05-26 15:22:00,58.1,39.0,29.88,NW,319,4.0,5.0,50,0.00,,,0.05,weatherlink.com 1.10,2013-05-26 19:22:00,
2013-05-26 15:37:00,58.9,38.0,29.89,WSW,241,4.0,16.0,47,0.00,,,0.05,weatherlink.com 1.10,2013-05-26 19:37:00,
2013-05-26 15:52:00,58.0,39.0,29.89,WSW,242,0.0,13.0,49,0.00,,,0.05,weatherlink.com 1.10,2013-05-26 19:52:00,
2013-05-26 16:07:00,58.3,38.0,29.89,West,265,12.0,12.0,48,0.00,,,0.05,weatherlink.com 1.10,2013-05-26 20:07:00,
2013-05-26 16:22:00,59.3,38.0,29.89,WNW,296,10.0,19.0,45,0.00,,,0.05,weatherlink.com 1.10,2013-05-26 20:22:00,
2013-05-26 16:37:00,59.8,39.0,29.90,WSW,245,6.0,8.0,47,0.00,,,0.05,weatherlink.com 1.10,2013-05-26 20:37:00,
2013-05-26 16:52:00,57.7,38.0,29.91,NNW,343,2.0,16.0,49,0.00,,,0.05,weatherlink.com 1.10,2013-05-26 20:52:00,
2013-05-26 17:07:00,57.5,38.0,29.92,West,275,3.0,14.0,49,0.00,,,0.05,weatherlink.com 1.10,2013-05-26 21:07:00,
2013-05-26 17:22:00,57.3,39.0,29.93,NE,53,0.0,16.0,51,0.00,,,0.05,weatherlink.com 1.10,2013-05-26 21:22:00,
2013-05-26 17:37:00,57.8,39.0,29.93,SW,215,4.0,13.0,50,0.00,,,0.05,weatherlink.com 1.10,2013-05-26 21:37:00,
2013-05-26 17:52:00,57.8,39.0,29.94,North,11,2.0,10.0,50,0.00,,,0.05,weatherlink.com 1.10,2013-05-26 21:52:00,
2013-05-26 18:07:00,56.9,39.0,29.94,WNW,294,2.0,11.0,51,0.00,,,0.05,weatherlink.com 1.10,2013-05-26 22:07:00,
2013-05-26 18:22:00,56.6,39.0,29.96,NW,311,1.0,16.0,52,0.00,,,0.05,weatherlink.com 1.10,2013-05-26 22:22:00,
2013-05-26 18:37:00,56.2,39.0,29.97,NW,321,0.0,9.0,52,0.00,,,0.05,weatherlink.com 1.10,2013-05-26 22:37:00,
2013-05-26 18:52:00,55.8,39.0,29.97,NNW,340,3.0,9.0,53,0.00,,,0.05,weatherlink.com 1.10,2013-05-26 22:52:00,
2013-05-26 19:08:00,55.2,39.0,29.97,WSW,255,2.0,8.0,54,0.00,,,0.05,weatherlink.com 1.10,2013-05-26 23:08:00,
2013-05-26 19:23:00,54.3,39.0,29.98,SSW,211,0.0,10.0,56,0.00,,,0.05,weatherlink.com 1.10,2013-05-26 23:23:00,
2013-05-26 19:38:00,53.6,39.0,29.99,ENE,64,0.0,6.0,58,0.00,,,0.05,weatherlink.com 1.10,2013-05-26 23:38:00,
2013-05-26 19:53:00,53.1,39.0,30.00,WSW,241,1.0,6.0,59,0.00,,,0.05,weatherlink.com 1.10,2013-05-26 23:53:00,
2013-05-26 20:08:00,52.5,39.0,30.01,NNE,32,6.0,6.0,60,0.00,,,0.05,weatherlink.com 1.10,2013-05-27 00:08:00,
2013-05-26 20:23:00,52.0,39.0,30.02,WNW,292,0.0,3.0,62,0.00,,,0.05,weatherlink.com 1.10,2013-05-27 00:23:00,
2013-05-26 20:38:00,51.6,39.0,30.02,WSW,237,2.0,5.0,63,0.00,,,0.05,weatherlink.com 1.10,2013-05-27 00:38:00,
2013-05-26 20:53:00,50.8,39.0,30.03,SW,223,3.0,6.0,65,0.00,,,0.05,weatherlink.com 1.10,2013-05-27 00:53:00,
2013-05-26 21:08:00,50.1,39.0,30.04,NNW,331,0.0,5.0,67,0.00,,,0.05,weatherlink.com 1.10,2013-05-27 01:08:00,
2013-05-26 21:23:00,49.7,39.0,30.05,SSW,211,0.0,3.0,68,0.00,,,0.05,weatherlink.com 1.10,2013-05-27 01:23:00,
2013-05-26 21:38:00,49.0,40.0,30.05,SSW,207,0.0,2.0,70,0.00,,,0.05,weatherlink.com 1.10,2013-05-27 01:38:00,
2013-05-26 21:53:00,48.6,40.0,30.05,West,269,0.0,3.0,71,0.00,,,0.05,weatherlink.com 1.10,2013-05-27 01:53:00,
2013-05-26 22:08:00,48.4,40.0,30.06,SW,222,0.0,3.0,72,0.00,,,0.05,weatherlink.com 1.10,2013-05-27 02:08:00,
2013-05-26 22:23:00,47.9,40.0,30.06,West,276,0.0,3.0,73,0.00,,,0.05,weatherlink.com 1.10,2013-05-27 02:23:00,
2013-05-26 22:38:00,47.5,40.0,30.07,SW,230,0.0,1.0,74,0.00,,,0.05,weatherlink.com 1.10,2013-05-27 02:38:00,
2013-05-26 22:53:00,46.7,40.0,30.07,WNW,296,0.0,2.0,76,0.00,,,0.05,weatherlink.com 1.10,2013-05-27 02:53:00,
2013-05-26 23:08:00,46.3,39.0,30.08,NW,306,0.0,4.0,77,0.00,,,0.05,weatherlink.com 1.10,2013-05-27 03:08:00,
2013-05-26 23:23:00,45.6,39.0,30.08,SW,236,0.0,1.0,79,0.00,,,0.05,weatherlink.com 1.10,2013-05-27 03:23:00,
2013-05-26 23:38:00,45.2,39.0,30.08,SW,226,0.0,2.0,80,0.00,,,0.05,weatherlink.com 1.10,2013-05-27 03:38:00,
2013-05-26 23:53:00,45.4,40.0,30.09,West,273,0.0,2.0,80,0.00,,,0.05,weatherlink.com 1.10,2013-05-27 03:53:00,